This demonstration page uses our WeatherBlox Daily Observations layout. Learn more.

Left ArrowRight Arrow

34.16533, -84.80231

Hourly Observations for April 23, 2022

Temp ( °F °C ) Dew Point ( °F °C ) Humidity (%) Winds ( mph kmh ) Pressure ( in mb ) Visibility ( mi km ) Precip ( " mm )
12:15 am 00:15 Clear 63 17 57 14 83 83 Calm 30.29 1026 10 16 0.00 0.00
12:35 am 00:35 Clear 63 17 57 14 83 83 Calm 30.29 1026 10 16 0.00 0.00
12:55 am 00:55 Clear 61 16 57 14 88 88 Calm 30.29 1026 10 16 0.00 0.00
1:15 am 01:15 Clear 61 16 57 14 88 88 Calm 30.29 1026 10 16 0.00 0.00
1:35 am 01:35 Clear 61 16 55 13 83 83 Calm 30.28 1025 10 16 0.00 0.00
1:55 am 01:55 Clear 61 16 55 13 83 83 Calm 30.28 1025 10 16 0.00 0.00
2:15 am 02:15 Clear 61 16 55 13 83 83 Calm 30.28 1025 10 16 0.00 0.00
2:35 am 02:35 Clear 59 15 55 13 88 88 Calm 30.28 1025 10 16 0.00 0.00
2:55 am 02:55 Clear 59 15 55 13 88 88 Calm 30.27 1025 10 16 0.00 0.00
3:15 am 03:15 Clear 59 15 55 13 88 88 Calm 30.27 1025 10 16 0.00 0.00
3:35 am 03:35 Clear 59 15 55 13 88 88 Calm 30.26 1025 10 16 0.00 0.00
3:55 am 03:55 Clear 57 14 55 13 94 94 ESE 6 9 30.27 1025 10 16 0.00 0.00
4:15 am 04:15 Mostly Clear 57 14 55 13 94 94 Calm 30.27 1025 10 16 0.00 0.00
4:35 am 04:35 Clear 57 14 55 13 94 94 Calm 30.27 1025 10 16 0.00 0.00
4:55 am 04:55 Clear 57 14 55 13 94 94 Calm 30.27 1025 10 16 0.00 0.00
5:15 am 05:15 Clear 55 13 55 13 100 100 Calm 30.27 1025 9 14 0.00 0.00
5:35 am 05:35 Mostly Clear 57 14 55 13 94 94 Calm 30.28 1025 10 16 0.00 0.00
5:55 am 05:55 Mostly Clear 57 14 55 13 94 94 Calm 30.28 1025 10 16 0.00 0.00
6:15 am 06:15 Partly Cloudy 57 14 55 13 94 94 Calm 30.28 1025 10 16 0.00 0.00
6:35 am 06:35 Partly Cloudy 57 14 55 13 94 94 Calm 30.28 1025 10 16 0.00 0.00
6:55 am 06:55 Mostly Clear 57 14 55 13 94 94 E 3 6 30.29 1026 10 16 0.00 0.00
7:15 am 07:15 Sunny 57 14 55 13 94 94 ENE 5 7 30.29 1026 10 16 0.00 0.00
7:35 am 07:35 Sunny 57 14 55 13 94 94 E 5 7 30.30 1026 10 16 0.00 0.00
7:55 am 07:55 Sunny 57 14 55 13 94 94 ENE 3 6 30.30 1026 10 16 0.00 0.00
8:15 am 08:15 Sunny 59 15 55 13 88 88 E 5 7 30.31 1026 10 16 0.00 0.00
8:35 am 08:35 Sunny 61 16 57 14 88 88 E 6 9 30.30 1026 10 16 0.00 0.00
8:55 am 08:55 Sunny 63 17 57 14 83 83 E 5 7 30.30 1026 10 16 0.00 0.00
9:15 am 09:15 Sunny 64 18 57 14 78 78 Calm 30.30 1026 10 16 0.00 0.00
9:35 am 09:35 Sunny 68 20 57 14 69 69 Calm 30.29 1026 10 16 0.00 0.00
9:55 am 09:55 Sunny 70 21 55 13 60 60 Calm 30.29 1026 10 16 0.00 0.00
10:15 am 10:15 Sunny 72 22 54 12 53 53 VRB 6 9 30.29 1026 10 16 0.00 0.00
10:35 am 10:35 Sunny 72 22 54 12 53 53 S 6 9 30.28 1025 10 16 0.00 0.00
10:55 am 10:55 Sunny 73 23 54 12 50 50 VRB 5 7 30.27 1025 10 16 0.00 0.00
11:15 am 11:15 Sunny 75 24 55 13 50 50 VRB 6 9 30.27 1025 10 16 0.00 0.00
11:35 am 11:35 Sunny 77 25 54 12 44 44 S 9 15 30.26 1025 10 16 0.00 0.00
11:55 am 11:55 Sunny 77 25 54 12 44 44 SE 13 20 30.26 1025 10 16 0.00 0.00
12:15 pm 12:15 Sunny 79 26 55 13 45 45 SE 10 17 30.25 1024 10 16 0.00 0.00
12:35 pm 12:35 Sunny 79 26 52 11 39 39 SSE 12 19 30.25 1024 10 16 0.00 0.00
12:55 pm 12:55 Sunny 79 26 54 12 42 42 SSE 10 17 30.24 1024 10 16 0.00 0.00
1:15 pm 13:15 Sunny 81 27 54 12 39 39 S 12 19 30.22 1024 10 16 0.00 0.00
1:35 pm 13:35 Sunny 81 27 54 12 39 39 SSE 10 17 30.22 1024 10 16 0.00 0.00
1:55 pm 13:55 Sunny 81 27 52 11 37 37 ESE 9 15 30.21 1023 10 16 0.00 0.00
2:15 pm 14:15 Sunny 82 28 54 12 37 37 SSE 13 20 30.21 1023 10 16 0.00 0.00
2:35 pm 14:35 Sunny 82 28 54 12 37 37 SSE 9 15 30.20 1023 10 16 0.00 0.00
2:55 pm 14:55 Mostly Sunny 82 28 54 12 37 37 SE 10 17 30.19 1022 10 16 0.00 0.00
3:15 pm 15:15 Mostly Sunny 82 28 52 11 35 35 VRB 6 9 30.18 1022 10 16 0.00 0.00
3:35 pm 15:35 Sunny 84 29 52 11 33 33 ESE 8 13 30.18 1022 10 16 0.00 0.00
3:55 pm 15:55 Sunny 82 28 52 11 35 35 ESE 9 15 30.17 1022 10 16 0.00 0.00
4:15 pm 16:15 Sunny 84 29 52 11 33 33 VRB 5 7 30.16 1021 10 16 0.00 0.00
4:35 pm 16:35 Mostly Sunny 84 29 52 11 33 33 S 8 13 30.16 1021 10 16 0.00 0.00
4:55 pm 16:55 Sunny 82 28 52 11 35 35 ESE 8 13 30.16 1021 10 16 0.00 0.00
5:15 pm 17:15 Mostly Sunny 84 29 52 11 33 33 SSE 10 17 30.15 1021 10 16 0.00 0.00
5:35 pm 17:35 Mostly Sunny 82 28 54 12 37 37 VRB 7 11 30.14 1021 10 16 0.00 0.00
5:55 pm 17:55 Sunny 82 28 54 12 37 37 ESE 8 13 30.14 1021 10 16 0.00 0.00
6:15 pm 18:15 Mostly Sunny 82 28 54 12 37 37 ESE 10 17 30.14 1021 10 16 0.00 0.00
6:35 pm 18:35 Mostly Sunny 81 27 52 11 37 37 SSE 9 15 30.14 1021 10 16 0.00 0.00
6:55 pm 18:55 Sunny 81 27 52 11 37 37 SSE 12 19 30.14 1021 10 16 0.00 0.00
7:15 pm 19:15 Sunny 79 26 54 12 42 42 SE 10 17 30.14 1021 10 16 0.00 0.00
7:35 pm 19:35 Sunny 79 26 54 12 42 42 SE 7 11 30.14 1021 10 16 0.00 0.00
7:55 pm 19:55 Sunny 77 25 54 12 44 44 SE 5 7 30.14 1021 10 16 0.00 0.00
8:15 pm 20:15 Sunny 75 24 54 12 47 47 VRB 6 9 30.14 1021 10 16 0.00 0.00
8:35 pm 20:35 Clear 75 24 54 12 47 47 ESE 3 6 30.14 1021 10 16 0.00 0.00
8:55 pm 20:55 Mostly Clear 73 23 54 12 50 50 SE 5 7 30.14 1021 10 16 0.00 0.00
9:15 pm 21:15 Mostly Clear 72 22 54 12 53 53 Calm 30.16 1021 10 16 0.00 0.00
9:35 pm 21:35 Clear 72 22 54 12 53 53 SE 3 6 30.16 1021 10 16 0.00 0.00
9:55 pm 21:55 Clear 70 21 55 13 60 60 SE 3 6 30.16 1021 10 16 0.00 0.00
10:15 pm 22:15 Mostly Clear 70 21 55 13 60 60 VRB 3 6 30.16 1021 10 16 0.00 0.00
10:35 pm 22:35 Clear 68 20 55 13 64 64 Calm 30.17 1022 10 16 0.00 0.00
10:55 pm 22:55 Clear 68 20 55 13 64 64 Calm 30.17 1022 10 16 0.00 0.00
11:15 pm 23:15 Clear 66 19 55 13 68 68 Calm 30.17 1022 10 16 0.00 0.00
11:35 pm 23:35 Mostly Clear 66 19 57 14 73 73 Calm 30.17 1022 10 16 0.00 0.00
11:55 pm 23:55 Clear 66 19 55 13 68 68 Calm 30.17 1022 10 16 0.00 0.00

Powered by AerisWeather